This is the latest recevied weather packets stored in our database for station/object WV5G-13. If no packets are shown the sender has not sent any weather packets the latest 10 day(s).
| Time | Temp. | Humidity | Pressure | Rain* | Wind** | Luminosity | Snow |
|---|---|---|---|---|---|---|---|
| 1777487346 | 17.78° C | 31% | 1015.6 hPa | 0 mm | - | 809 W/m² | - |
| 1777487043 | 18.33° C | 32% | 1015.6 hPa | 0 mm | - | 806 W/m² | - |
| 1777486739 | 17.22° C | 33% | 1015.9 hPa | 0 mm | - | 891 W/m² | - |
| 1777486437 | 17.78° C | 34% | 1016.2 hPa | 0 mm | - | 928 W/m² | - |
| 1777486134 | 17.78° C | 34% | 1016 hPa | 0 mm | - | 901 W/m² | - |
| 1777485831 | 17.22° C | 37% | 1016.1 hPa | 0 mm | - | 921 W/m² | - |
| 1777485526 | 17.78° C | 35% | 1016.2 hPa | 0 mm | - | 924 W/m² | - |
| 1777485223 | 17.22° C | 36% | 1016.7 hPa | 0 mm | - | 812 W/m² | - |
| 1777484919 | 17.22° C | 38% | 1016.7 hPa | 0 mm | - | 927 W/m² | - |
| 1777484617 | 16.67° C | 39% | 1016.7 hPa | 0 mm | - | 869 W/m² | - |
| 1777484313 | 16.11° C | 41% | 1016.8 hPa | 0 mm | - | 948 W/m² | - |
| 1777484009 | 16.11° C | 44% | 1016.9 hPa | 0 mm | - | 888 W/m² | - |
| 1777483706 | 15.56° C | 46% | 1017 hPa | 0 mm | - | 855 W/m² | - |
| 1777483401 | 15.56° C | 46% | 1016.9 hPa | 0 mm | - | 860 W/m² | - |
| 1777483096 | 15.56° C | 47% | 1017 hPa | 0 mm | - | 833 W/m² | - |
| 1777482794 | 15° C | 49% | 1017 hPa | 0 mm | - | 836 W/m² | - |
| 1777482489 | 13.89° C | 50% | 1017.1 hPa | 0 mm | - | 651 W/m² | - |
| 1777482187 | 14.44° C | 49% | 1017.1 hPa | 0 mm | - | 731 W/m² | - |
| 1777481885 | 15° C | 51% | 1017.2 hPa | 0 mm | - | 781 W/m² | - |
| 1777481582 | 14.44° C | 52% | 1017.8 hPa | 0 mm | - | 837 W/m² | - |
| 1777481278 | 14.44° C | 51% | 1017.8 hPa | 0 mm | - | 908 W/m² | - |
| 1777480975 | 13.89° C | 56% | 1017.5 hPa | 0 mm | - | 883 W/m² | - |
| 1777480672 | 12.78° C | 56% | 1017.5 hPa | 0 mm | - | 468 W/m² | - |
| 1777480369 | 12.78° C | 57% | 1017.1 hPa | 0 mm | - | 636 W/m² | - |
| 1777480064 | 12.78° C | 58% | 1017.5 hPa | 0 mm | - | 575 W/m² | - |
* Rain latest hour (hover to see other rain measurements)
** Current wind speed in m/s (hover to see current wind gust speed)